| time (UTC) | temp C | wind direction | speed KPH | gust KPH | rain 1hr cm | rain 24hr cm | rain mn cm | humidity % | barometer mb |
| 20260504214519 | 16 | 76 | 0.0 | 0.0 | 0.00 | 0.00 | 0.00 | 64 | 1010.3 |
| 20260504213018 | 16 | 76 | 0.0 | 0.0 | 0.00 | 0.00 | 0.00 | 64 | 1010.4 |
| 20260504211908 | 17 | 0.0 | 0.0 | 0.00 | 0.00 | 0.00 | 63 | 1011.7 | |
| 20260504211518 | 16 | 76 | 0.0 | 0.0 | 0.00 | 0.00 | 0.00 | 64 | 1010.4 |
| 20260504210022 | 16 | 77 | 0.0 | 0.0 | 0.00 | 0.00 | 0.00 | 62 | 1010.5 |
| 20260504204517 | 17 | 77 | 0.0 | 0.0 | 0.00 | 0.00 | 0.00 | 61 | 1010.6 |
| 20260504203016 | 17 | 77 | 0.0 | 0.0 | 0.00 | 0.00 | 0.00 | 63 | 1010.6 |
| 20260504201840 | 18 | 0.0 | 0.0 | 0.00 | 0.00 | 0.00 | 58 | 1011.9 | |
| 20260504201515 | 17 | 77 | 0.0 | 0.0 | 0.00 | 0.00 | 0.00 | 60 | 1010.7 |
| 20260504200015 | 17 | 77 | 0.0 | 0.0 | 0.00 | 0.00 | 0.00 | 57 | 1010.6 |
| 20260504194515 | 18 | 76 | 0.0 | 0.0 | 0.00 | 0.00 | 0.00 | 57 | 1010.6 |
| 20260504193015 | 18 | 76 | 0.0 | 0.0 | 0.00 | 0.00 | 0.00 | 56 | 1010.6 |
| 20260504191823 | 19 | 0.0 | 1.6 | 0.00 | 0.00 | 0.00 | 54 | 1011.8 | |
| 20260504191514 | 18 | 76 | 0.0 | 1.6 | 0.00 | 0.00 | 0.00 | 55 | 1010.5 |
| 20260504190014 | 18 | 76 | 3.2 | 4.8 | 0.00 | 0.00 | 0.00 | 53 | 1010.5 |
| 20260504184515 | 19 | 27 | 0.0 | 1.6 | 0.00 | 0.00 | 0.00 | 55 | 1010.4 |
| 20260504183013 | 20 | 27 | 0.0 | 3.2 | 0.00 | 0.00 | 0.00 | 53 | 1010.4 |
| 20260504181919 | 20 | 23 | 1.6 | 3.2 | 0.00 | 0.00 | 0.00 | 51 | 1011.5 |
| 20260504181512 | 20 | 27 | 0.0 | 3.2 | 0.00 | 0.00 | 0.00 | 52 | 1010.4 |
| 20260504180012 | 21 | 27 | 0.0 | 3.2 | 0.00 | 0.00 | 0.00 | 50 | 1010.4 |
| 20260504174511 | 21 | 321 | 0.0 | 3.2 | 0.00 | 0.00 | 0.00 | 45 | 1010.3 |
| 20260504173010 | 21 | 321 | 0.0 | 3.2 | 0.00 | 0.00 | 0.00 | 43 | 1010.4 |
| 20260504172012 | 22 | 315 | 1.6 | 3.2 | 0.00 | 0.00 | 0.00 | 41 | 1011.9 |
| 20260504171508 | 21 | 321 | 0.0 | 4.8 | 0.00 | 0.00 | 0.00 | 43 | 1010.5 |
| 20260504081548 | 19 | 248 | 3.2 | 4.8 | 0.00 | 0.00 | 0.00 | 56 | 1015.7 |
| 20260504081509 | 19 | 250 | 0.0 | 6.4 | 0.00 | 0.00 | 0.00 | 54 | 1014.3 |
| 20260504044540 | 13 | 209 | 0.0 | 1.6 | 0.00 | 0.00 | 0.00 | 69 | 1013.8 |
| 20260504043041 | 13 | 209 | 0.0 | 0.0 | 0.00 | 0.00 | 0.00 | 69 | 1013.8 |
| 20260504041543 | 14 | 203 | 1.6 | 1.6 | 0.00 | 0.00 | 0.00 | 69 | 1015.3 |
| 20260504041539 | 13 | 209 | 0.0 | 1.6 | 0.00 | 0.00 | 0.00 | 68 | 1013.6 |
| 20260504040044 | 13 | 209 | 0.0 | 0.0 | 0.00 | 0.00 | 0.00 | 68 | 1013.7 |
| 20260504034542 | 13 | 208 | 0.0 | 1.6 | 0.00 | 0.00 | 0.00 | 67 | 1013.8 |
| 20260504033039 | 14 | 209 | 0.0 | 1.6 | 0.00 | 0.00 | 0.00 | 67 | 1014.0 |
| 20260504031833 | 14 | 0.0 | 0.0 | 0.00 | 0.00 | 0.00 | 67 | 1015.7 | |
| 20260504031543 | 14 | 208 | 0.0 | 3.2 | 0.00 | 0.00 | 0.00 | 66 | 1013.9 |
| 20260504030036 | 14 | 208 | 0.0 | 3.2 | 0.00 | 0.00 | 0.00 | 67 | 1014.1 |
| 20260504024534 | 15 | 248 | 1.6 | 4.8 | 0.00 | 0.00 | 0.00 | 65 | 1014.0 |
| 20260504023033 | 15 | 248 | 0.0 | 3.2 | 0.00 | 0.00 | 0.00 | 64 | 1013.9 |
| 20260504021704 | 16 | 248 | 1.6 | 3.2 | 0.00 | 0.00 | 0.00 | 62 | 1015.5 |
| 20260504021532 | 15 | 248 | 1.6 | 4.8 | 0.00 | 0.00 | 0.00 | 63 | 1013.7 |
| 20260504020029 | 15 | 268 | 0.0 | 0.0 | 0.00 | 0.00 | 0.00 | 61 | 1013.3 |
| 20260504014528 | 16 | 269 | 0.0 | 6.4 | 0.00 | 0.00 | 0.00 | 61 | 1013.3 |
| 20260504013034 | 15 | 306 | 0.0 | 6.4 | 0.00 | 0.00 | 0.00 | 62 | 1013.1 |
| 20260504011800 | 15 | 293 | 4.8 | 6.4 | 0.00 | 0.00 | 0.00 | 65 | 1015.0 |
| 20260504011527 | 15 | 260 | 0.0 | 6.4 | 0.00 | 0.00 | 0.00 | 64 | 1013.1 |
| 20260504010022 | 13 | 265 | 1.6 | 6.4 | 0.00 | 0.00 | 0.00 | 67 | 1013.2 |
| 20260504004526 | 13 | 220 | 0.0 | 9.7 | 0.00 | 0.00 | 0.00 | 69 | 1013.3 |
| 20260504003030 | 13 | 225 | 3.2 | 6.4 | 0.00 | 0.00 | 0.00 | 69 | 1013.2 |
| 20260504001729 | 15 | 0.0 | 0.0 | 0.00 | 0.00 | 0.00 | 65 | 1014.2 | |
| 20260504001524 | 15 | 116 | 0.0 | 1.6 | 0.00 | 0.00 | 0.00 | 66 | 1012.5 |
| 20260504000046 | 15 | 115 | 0.0 | 3.2 | 0.00 | 0.00 | 0.00 | 64 | 1012.6 |
| 20260503234518 | 15 | 98 | 3.2 | 6.4 | 0.00 | 0.00 | 0.00 | 63 | 1012.5 |
| 20260503233016 | 14 | 115 | 1.6 | 4.8 | 0.00 | 0.00 | 0.00 | 66 | 1012.9 |
| 20260503231648 | 14 | 293 | 1.6 | 1.6 | 0.00 | 0.00 | 0.00 | 67 | 1014.6 |
| 20260503231515 | 14 | 282 | 0.0 | 3.2 | 0.00 | 0.00 | 0.00 | 67 | 1013.2 |
| 20260503230018 | 14 | 282 | 0.0 | 0.0 | 0.00 | 0.00 | 0.00 | 68 | 1013.1 |
| 20260503224512 | 15 | 282 | 0.0 | 1.6 | 0.00 | 0.00 | 0.00 | 67 | 1013.0 |
| 20260503223010 | 15 | 283 | 0.0 | 3.2 | 0.00 | 0.00 | 0.00 | 65 | 1012.7 |
| 20260503221637 | 15 | 0.0 | 0.0 | 0.00 | 0.00 | 0.00 | 64 | 1014.1 | |
| 20260503221507 | 15 | 282 | 0.0 | 0.0 | 0.00 | 0.00 | 0.00 | 66 | 1012.7 |
| 20260503220004 | 15 | 282 | 0.0 | 0.0 | 0.00 | 0.00 | 0.00 | 64 | 1012.6 |